Retour au catalogue

CZ-6A DEB

ActifSSO
NORAD 55523·DEBRIS·🇨🇳 China

Lancé Nov 11, 2022 depuis Taiyuan Satellite Launch Center

Loading…

Prochains Passages (prochaines 24 heures)

TLE

FraisSource: Space-Track

Époque: Sep 13, 2026, 12:34 UTC

1 55523U 22151XV  26256.52394227  .00003350  00000-0  14485-2 0  9991
2 55523  98.8272 267.5973 0050730  29.8048 330.6003 14.24362899192851

Suivez CZ-6A DEB en temps réel avec AllMySat

Download on the App Store